Orbital Elements at Epoch 2459200.5 (2020-Dec-17.0) TDB
Reference: JPL 17 (heliocentric ecliptic J2000)
Element | Value | Uncertainty (1-sigma) | Units |
e | .1644850013779588 | 5.0569e-08 | |
a | 2.602150209706753 | 1.5177e-08 | au |
q | 2.174135528877482 | 1.3405e-07 | au |
i | 2.720981231668045 | 5.4975e-06 | deg |
node | 175.1194421990819 | 0.0001024 | deg |
peri | 154.04435203234 | 0.00010354 | deg |
M | 82.57315274987545 | 1.5388e-05 | deg |
tp | 2458848.831606901148 (2019-Dec-31.33160690) | 6.4305e-05 | TDB |
period | 1533.193505388802 4.20 | 1.3414e-05 3.673e-08 | d yr |
n | .2348040209762744 | 2.0543e-09 | deg/d |
Q | 3.030164890536025 | 1.7674e-08 | au |
|
| | Orbit Determination Parameters
Additional Information
|